Year,Month,Day,Hour,Minute,Value (Times are PST for temperature in C)
2010,07,25,00,00,17.30
2010,07,25,00,01,17.30
2010,07,25,00,02,17.30
2010,07,25,00,03,17.20
2010,07,25,00,04,17.20
2010,07,25,00,05,17.20
2010,07,25,00,06,17.20
2010,07,25,00,07,17.10
2010,07,25,00,08,17.10
2010,07,25,00,09,17.10
2010,07,25,00,10,17.10
2010,07,25,00,11,17.00
2010,07,25,00,12,17.00
2010,07,25,00,13,16.90
2010,07,25,00,14,16.90
2010,07,25,00,15,16.90
2010,07,25,00,16,16.90
2010,07,25,00,17,16.90
2010,07,25,00,18,16.80
2010,07,25,00,19,16.80
2010,07,25,00,20,16.80
2010,07,25,00,21,16.80
2010,07,25,00,22,16.70
2010,07,25,00,23,16.70
2010,07,25,00,24,16.70
2010,07,25,00,25,16.70
2010,07,25,00,26,16.70
2010,07,25,00,27,16.70
2010,07,25,00,28,16.60
2010,07,25,00,29,16.60
2010,07,25,00,30,16.60
2010,07,25,00,31,16.60
2010,07,25,00,32,16.60
2010,07,25,00,33,16.60
2010,07,25,00,34,16.60
2010,07,25,00,35,16.60
2010,07,25,00,36,16.50
2010,07,25,00,37,16.50
2010,07,25,00,38,16.50
2010,07,25,00,39,16.50
2010,07,25,00,40,16.40
2010,07,25,00,41,16.40
2010,07,25,00,42,16.40
2010,07,25,00,43,16.40
2010,07,25,00,44,16.30
2010,07,25,00,45,16.30
2010,07,25,00,46,16.30
2010,07,25,00,47,16.30
2010,07,25,00,48,16.20
2010,07,25,00,49,16.20
2010,07,25,00,50,16.20
2010,07,25,00,51,16.20
2010,07,25,00,52,16.10
2010,07,25,00,53,16.10
2010,07,25,00,54,16.10
2010,07,25,00,55,16.00
2010,07,25,00,56,16.00
2010,07,25,00,57,16.00
2010,07,25,00,58,16.00
2010,07,25,00,59,16.00
2010,07,25,01,00,16.00
2010,07,25,01,01,15.90
2010,07,25,01,02,15.90
2010,07,25,01,03,15.90
2010,07,25,01,04,15.90
2010,07,25,01,05,15.90
2010,07,25,01,06,15.90
2010,07,25,01,07,15.80
2010,07,25,01,08,15.80
2010,07,25,01,09,15.80
2010,07,25,01,10,15.80
2010,07,25,01,11,15.80
2010,07,25,01,12,15.80
2010,07,25,01,13,15.80
2010,07,25,01,14,15.80
2010,07,25,01,15,15.80
2010,07,25,01,16,15.70
2010,07,25,01,17,15.70
2010,07,25,01,18,15.70
2010,07,25,01,19,15.70
2010,07,25,01,20,15.60
2010,07,25,01,21,15.60
2010,07,25,01,22,15.60
2010,07,25,01,23,15.50
2010,07,25,01,24,15.50
2010,07,25,01,25,15.50
2010,07,25,01,26,15.40
2010,07,25,01,27,15.40
2010,07,25,01,28,15.40
2010,07,25,01,29,15.30
2010,07,25,01,30,15.30
2010,07,25,01,31,15.30
2010,07,25,01,32,15.30
2010,07,25,01,33,15.20
2010,07,25,01,34,15.20
2010,07,25,01,35,15.20
2010,07,25,01,36,15.20
2010,07,25,01,37,15.20
2010,07,25,01,38,15.20
2010,07,25,01,39,15.10
2010,07,25,01,40,15.10
2010,07,25,01,41,15.00
2010,07,25,01,42,15.00
2010,07,25,01,43,15.00
2010,07,25,01,44,15.00
2010,07,25,01,45,15.00
2010,07,25,01,46,15.00
2010,07,25,01,47,15.00
2010,07,25,01,48,15.00
2010,07,25,01,49,15.00
2010,07,25,01,50,14.90
2010,07,25,01,51,14.90
2010,07,25,01,52,14.90
2010,07,25,01,53,14.80
2010,07,25,01,54,14.80
2010,07,25,01,55,14.80
2010,07,25,01,56,14.70
2010,07,25,01,57,14.70
2010,07,25,01,58,14.70
2010,07,25,01,59,14.60
2010,07,25,02,00,14.50
2010,07,25,02,01,14.50
2010,07,25,02,02,14.40
2010,07,25,02,03,14.40
2010,07,25,02,04,14.30
2010,07,25,02,05,14.30
2010,07,25,02,06,14.20
2010,07,25,02,07,14.20
2010,07,25,02,08,14.20
2010,07,25,02,09,14.10
2010,07,25,02,10,14.10
2010,07,25,02,11,14.00
2010,07,25,02,12,14.00
2010,07,25,02,13,13.90
2010,07,25,02,14,13.90
2010,07,25,02,15,13.80
2010,07,25,02,16,13.80
2010,07,25,02,17,13.80
2010,07,25,02,18,13.70
2010,07,25,02,19,13.70
2010,07,25,02,20,13.70
2010,07,25,02,21,13.70
2010,07,25,02,22,13.60
2010,07,25,02,23,13.60
2010,07,25,02,24,13.60
2010,07,25,02,25,13.50
2010,07,25,02,26,13.50
2010,07,25,02,27,13.40
2010,07,25,02,28,13.40
2010,07,25,02,29,13.40
2010,07,25,02,30,13.40
2010,07,25,02,31,13.30
2010,07,25,02,32,13.30
2010,07,25,02,33,13.30
2010,07,25,02,34,13.30
2010,07,25,02,35,13.20
2010,07,25,02,36,13.20
2010,07,25,02,37,13.20
2010,07,25,02,38,13.20
2010,07,25,02,39,13.20
2010,07,25,02,40,13.20
2010,07,25,02,41,13.10
2010,07,25,02,42,13.10
2010,07,25,02,43,13.10
2010,07,25,02,44,13.10
2010,07,25,02,45,13.10
2010,07,25,02,46,13.10
2010,07,25,02,47,13.10
2010,07,25,02,48,13.10
2010,07,25,02,49,13.10
2010,07,25,02,50,13.10
2010,07,25,02,51,13.10
2010,07,25,02,52,13.10
2010,07,25,02,53,13.20
2010,07,25,02,54,13.20
2010,07,25,02,55,13.20
2010,07,25,02,56,13.30
2010,07,25,02,57,13.40
2010,07,25,02,58,13.40
2010,07,25,02,59,13.50
2010,07,25,03,00,13.60
2010,07,25,03,01,13.70
2010,07,25,03,02,13.70
2010,07,25,03,03,13.70
2010,07,25,03,04,13.80
2010,07,25,03,05,13.80
2010,07,25,03,06,13.80
2010,07,25,03,07,13.80
2010,07,25,03,08,13.80
2010,07,25,03,09,13.80
2010,07,25,03,10,13.80
2010,07,25,03,11,13.80
2010,07,25,03,12,13.80
2010,07,25,03,13,13.70
2010,07,25,03,14,13.70
2010,07,25,03,15,13.70
2010,07,25,03,16,13.70
2010,07,25,03,17,13.70
2010,07,25,03,18,13.70
2010,07,25,03,19,13.70
2010,07,25,03,20,13.60
2010,07,25,03,21,13.60
2010,07,25,03,22,13.60
2010,07,25,03,23,13.60
2010,07,25,03,24,13.60
2010,07,25,03,25,13.60
2010,07,25,03,26,13.60
2010,07,25,03,27,13.60
2010,07,25,03,28,13.60
2010,07,25,03,29,13.70
2010,07,25,03,30,13.70
2010,07,25,03,31,13.70
2010,07,25,03,32,13.70
2010,07,25,03,33,13.70
2010,07,25,03,34,13.70
2010,07,25,03,35,13.70
2010,07,25,03,36,13.70
2010,07,25,03,37,13.70
2010,07,25,03,38,13.60
2010,07,25,03,39,13.60
2010,07,25,03,40,13.50
2010,07,25,03,41,13.50
2010,07,25,03,42,13.40
2010,07,25,03,43,13.40
2010,07,25,03,44,13.30
2010,07,25,03,45,13.30
2010,07,25,03,46,13.30
2010,07,25,03,47,13.20
2010,07,25,03,48,13.20
2010,07,25,03,49,13.10
2010,07,25,03,50,13.10
2010,07,25,03,51,13.10
2010,07,25,03,52,13.10
2010,07,25,03,53,13.10
2010,07,25,03,54,13.10
2010,07,25,03,55,13.00
2010,07,25,03,56,13.00
2010,07,25,03,57,13.00
2010,07,25,03,58,13.00
2010,07,25,03,59,13.00
2010,07,25,04,00,13.10
2010,07,25,04,01,13.10
2010,07,25,04,02,13.10
2010,07,25,04,03,13.10
2010,07,25,04,04,13.10
2010,07,25,04,05,13.10
2010,07,25,04,06,13.20
2010,07,25,04,07,13.20
2010,07,25,04,08,13.20
2010,07,25,04,09,13.20
2010,07,25,04,10,13.20
2010,07,25,04,11,13.20
2010,07,25,04,12,13.20
2010,07,25,04,13,13.20
2010,07,25,04,14,13.20
2010,07,25,04,15,13.20
2010,07,25,04,16,13.20
2010,07,25,04,17,13.10
2010,07,25,04,18,13.10
2010,07,25,04,19,13.10
2010,07,25,04,20,13.10
2010,07,25,04,21,13.10
2010,07,25,04,22,13.10
2010,07,25,04,23,13.10
2010,07,25,04,24,13.00
2010,07,25,04,25,13.00
2010,07,25,04,26,12.90
2010,07,25,04,27,12.90
2010,07,25,04,28,12.80
2010,07,25,04,29,12.80
2010,07,25,04,30,12.80
2010,07,25,04,31,12.70
2010,07,25,04,32,12.70
2010,07,25,04,33,12.70
2010,07,25,04,34,12.70
2010,07,25,04,35,12.60
2010,07,25,04,36,12.60
2010,07,25,04,37,12.60
2010,07,25,04,38,12.60
2010,07,25,04,39,12.60
2010,07,25,04,40,12.60
2010,07,25,04,41,12.50
2010,07,25,04,42,12.50
2010,07,25,04,43,12.50
2010,07,25,04,44,12.50
2010,07,25,04,45,12.50
2010,07,25,04,46,12.50
2010,07,25,04,47,12.50
2010,07,25,04,48,12.40
2010,07,25,04,49,12.40
2010,07,25,04,50,12.40
2010,07,25,04,51,12.40
2010,07,25,04,52,12.40
2010,07,25,04,53,12.40
2010,07,25,04,54,12.40
2010,07,25,04,55,12.40
2010,07,25,04,56,12.40
2010,07,25,04,57,12.40
2010,07,25,04,58,12.40
2010,07,25,04,59,12.40
2010,07,25,05,00,12.40
2010,07,25,05,01,12.40
2010,07,25,05,02,12.30
2010,07,25,05,03,12.30
2010,07,25,05,04,12.30
2010,07,25,05,05,12.30
2010,07,25,05,06,12.20
2010,07,25,05,07,12.20
2010,07,25,05,08,12.20
2010,07,25,05,09,12.20
2010,07,25,05,10,12.20
2010,07,25,05,11,12.10
2010,07,25,05,12,12.10
2010,07,25,05,13,12.10
2010,07,25,05,14,12.10
2010,07,25,05,15,12.00
2010,07,25,05,16,12.00
2010,07,25,05,17,12.00
2010,07,25,05,18,11.90
2010,07,25,05,19,11.90
2010,07,25,05,20,11.90
2010,07,25,05,21,11.90
2010,07,25,05,22,11.90
2010,07,25,05,23,11.80
2010,07,25,05,24,11.80
2010,07,25,05,25,11.80
2010,07,25,05,26,11.80
2010,07,25,05,27,11.80
2010,07,25,05,28,11.70
2010,07,25,05,29,11.70
2010,07,25,05,30,11.70
2010,07,25,05,31,11.70
2010,07,25,05,32,11.70
2010,07,25,05,33,11.60
2010,07,25,05,34,11.60
2010,07,25,05,35,11.60
2010,07,25,05,36,11.60
2010,07,25,05,37,11.50
2010,07,25,05,38,11.50
2010,07,25,05,39,11.50
2010,07,25,05,40,11.40
2010,07,25,05,41,11.40
2010,07,25,05,42,11.40
2010,07,25,05,43,11.40
2010,07,25,05,44,11.40
2010,07,25,05,45,11.40
2010,07,25,05,46,11.30
2010,07,25,05,47,11.30
2010,07,25,05,48,11.30
2010,07,25,05,49,11.30
2010,07,25,05,50,11.30
2010,07,25,05,51,11.30
2010,07,25,05,52,11.30
2010,07,25,05,53,11.30
2010,07,25,05,54,11.30
2010,07,25,05,55,11.30
2010,07,25,05,56,11.30
2010,07,25,05,57,11.30
2010,07,25,05,58,11.30
2010,07,25,05,59,11.30
2010,07,25,06,00,11.30
2010,07,25,06,01,11.40
2010,07,25,06,02,11.40
2010,07,25,06,03,11.40
2010,07,25,06,04,11.40
2010,07,25,06,05,11.40
2010,07,25,06,06,11.40
2010,07,25,06,07,11.50
2010,07,25,06,08,11.50
2010,07,25,06,09,11.60
2010,07,25,06,10,11.60
2010,07,25,06,11,11.60
2010,07,25,06,12,11.70
2010,07,25,06,13,11.70
2010,07,25,06,14,11.80
2010,07,25,06,15,11.80
2010,07,25,06,16,11.80
2010,07,25,06,17,11.90
2010,07,25,06,18,11.90
2010,07,25,06,19,11.90
2010,07,25,06,20,12.00
2010,07,25,06,21,12.00
2010,07,25,06,22,12.10
2010,07,25,06,23,12.10
2010,07,25,06,24,12.10
2010,07,25,06,25,12.20
2010,07,25,06,26,12.20
2010,07,25,06,27,12.30
2010,07,25,06,28,12.30
2010,07,25,06,29,12.40
2010,07,25,06,30,12.40
2010,07,25,06,31,12.50
2010,07,25,06,32,12.60
2010,07,25,06,33,12.60
2010,07,25,06,34,12.70
2010,07,25,06,35,12.70
2010,07,25,06,36,12.80
2010,07,25,06,37,12.80
2010,07,25,06,38,12.90
2010,07,25,06,39,12.90
2010,07,25,06,40,13.00
2010,07,25,06,41,13.10
2010,07,25,06,42,13.10
2010,07,25,06,43,13.20
2010,07,25,06,44,13.30
2010,07,25,06,45,13.40
2010,07,25,06,46,13.60
2010,07,25,06,47,13.70
2010,07,25,06,48,13.80
2010,07,25,06,49,13.80
2010,07,25,06,50,14.00
2010,07,25,06,51,14.10
2010,07,25,06,52,14.20
2010,07,25,06,53,14.20
2010,07,25,06,54,14.30
2010,07,25,06,55,14.40
2010,07,25,06,56,14.50
2010,07,25,06,57,14.60
2010,07,25,06,58,14.70
2010,07,25,06,59,14.70
2010,07,25,07,00,14.80
2010,07,25,07,01,14.90
2010,07,25,07,02,15.00
2010,07,25,07,03,15.00
2010,07,25,07,04,15.00
2010,07,25,07,05,15.00
2010,07,25,07,06,15.00
2010,07,25,07,07,15.00
2010,07,25,07,08,15.10
2010,07,25,07,09,15.20
2010,07,25,07,10,15.20
2010,07,25,07,11,15.20
2010,07,25,07,12,15.30
2010,07,25,07,13,15.30
2010,07,25,07,14,15.40
2010,07,25,07,15,15.40
2010,07,25,07,16,15.40
2010,07,25,07,17,15.50
2010,07,25,07,18,15.50
2010,07,25,07,19,15.60
2010,07,25,07,20,15.60
2010,07,25,07,21,15.60
2010,07,25,07,22,15.60
2010,07,25,07,23,15.70
2010,07,25,07,24,15.70
2010,07,25,07,25,15.70
2010,07,25,07,26,15.70
2010,07,25,07,27,15.80
2010,07,25,07,28,15.80
2010,07,25,07,29,15.80
2010,07,25,07,30,15.80
2010,07,25,07,31,15.80
2010,07,25,07,32,15.80
2010,07,25,07,33,15.90
2010,07,25,07,34,15.90
2010,07,25,07,35,15.90
2010,07,25,07,36,15.90
2010,07,25,07,37,15.90
2010,07,25,07,38,16.00
2010,07,25,07,39,16.00
2010,07,25,07,40,16.00
2010,07,25,07,41,16.10
2010,07,25,07,42,16.10
2010,07,25,07,43,16.10
2010,07,25,07,44,16.10
2010,07,25,07,45,16.10
2010,07,25,07,46,16.20
2010,07,25,07,47,16.20
2010,07,25,07,48,16.20
2010,07,25,07,49,16.20
2010,07,25,07,50,16.20
2010,07,25,07,51,16.30
2010,07,25,07,52,16.30
2010,07,25,07,53,16.30
2010,07,25,07,54,16.30
2010,07,25,07,55,16.30
2010,07,25,07,56,16.30
2010,07,25,07,57,16.30
2010,07,25,07,58,16.30
2010,07,25,07,59,16.30
2010,07,25,08,00,16.30
2010,07,25,08,01,16.30
2010,07,25,08,02,16.30
2010,07,25,08,03,16.30
2010,07,25,08,04,16.30
2010,07,25,08,05,16.30
2010,07,25,08,06,16.30
2010,07,25,08,07,16.30
2010,07,25,08,08,16.30
2010,07,25,08,09,16.40
2010,07,25,08,10,16.40
2010,07,25,08,11,16.40
2010,07,25,08,12,16.50
2010,07,25,08,13,16.50
2010,07,25,08,14,16.50
2010,07,25,08,15,16.50
2010,07,25,08,16,16.50
2010,07,25,08,17,16.50
2010,07,25,08,18,16.50
2010,07,25,08,19,16.60
2010,07,25,08,20,16.60
2010,07,25,08,21,16.60
2010,07,25,08,22,16.60
2010,07,25,08,23,16.60
2010,07,25,08,24,16.60
2010,07,25,08,25,16.60
2010,07,25,08,26,16.70
2010,07,25,08,27,16.70
2010,07,25,08,28,16.70
2010,07,25,08,29,16.70
2010,07,25,08,30,16.70
2010,07,25,08,31,16.70
2010,07,25,08,32,16.80
2010,07,25,08,33,16.80
2010,07,25,08,34,16.80
2010,07,25,08,35,16.80
2010,07,25,08,36,16.80
2010,07,25,08,37,16.90
2010,07,25,08,38,16.90
2010,07,25,08,39,16.90
2010,07,25,08,40,16.90
2010,07,25,08,41,17.00
2010,07,25,08,42,17.10
2010,07,25,08,43,17.10
2010,07,25,08,44,17.20
2010,07,25,08,45,17.20
2010,07,25,08,46,17.20
2010,07,25,08,47,17.10
2010,07,25,08,48,17.10
2010,07,25,08,49,17.10
2010,07,25,08,50,17.10
2010,07,25,08,51,17.20
2010,07,25,08,52,17.20
2010,07,25,08,53,17.20
2010,07,25,08,54,17.20
2010,07,25,08,55,17.20
2010,07,25,08,56,17.20
2010,07,25,08,57,17.20
2010,07,25,08,58,17.20
2010,07,25,08,59,17.20
2010,07,25,09,00,17.20
2010,07,25,09,01,17.20
2010,07,25,09,02,17.20
2010,07,25,09,03,17.20
2010,07,25,09,04,17.10
2010,07,25,09,05,17.10
2010,07,25,09,06,17.10
2010,07,25,09,07,17.10
2010,07,25,09,08,17.20
2010,07,25,09,09,17.20
2010,07,25,09,10,17.30
2010,07,25,09,11,17.30
2010,07,25,09,12,17.40
2010,07,25,09,13,17.50
2010,07,25,09,14,17.60
2010,07,25,09,15,17.60
2010,07,25,09,16,17.60
2010,07,25,09,17,17.70
2010,07,25,09,18,17.70
2010,07,25,09,19,17.80
2010,07,25,09,20,17.80
2010,07,25,09,21,17.80
2010,07,25,09,22,17.80
2010,07,25,09,23,17.90
2010,07,25,09,24,17.90
2010,07,25,09,25,18.00
2010,07,25,09,26,18.00
2010,07,25,09,27,18.00
2010,07,25,09,28,18.10
2010,07,25,09,29,18.10
2010,07,25,09,30,18.10
2010,07,25,09,31,18.10
2010,07,25,09,32,18.20
2010,07,25,09,33,18.20
2010,07,25,09,34,18.20
2010,07,25,09,35,18.20
2010,07,25,09,36,18.30
2010,07,25,09,37,18.30
2010,07,25,09,38,18.30
2010,07,25,09,39,18.40
2010,07,25,09,40,18.40
2010,07,25,09,41,18.30
2010,07,25,09,42,18.30
2010,07,25,09,43,18.30
2010,07,25,09,44,18.30
2010,07,25,09,45,18.20
2010,07,25,09,46,18.10
2010,07,25,09,47,18.10
2010,07,25,09,48,18.00
2010,07,25,09,49,18.00
2010,07,25,09,50,18.00
2010,07,25,09,51,18.00
2010,07,25,09,52,18.00
2010,07,25,09,53,18.10
2010,07,25,09,54,18.10
2010,07,25,09,55,18.10
2010,07,25,09,56,18.10
2010,07,25,09,57,18.10
2010,07,25,09,58,18.10
2010,07,25,09,59,18.10
2010,07,25,10,00,18.10
2010,07,25,10,01,18.10
2010,07,25,10,02,18.00
2010,07,25,10,03,18.00
2010,07,25,10,04,18.00
2010,07,25,10,05,18.00
2010,07,25,10,06,18.00
2010,07,25,10,07,18.10
2010,07,25,10,08,18.10
2010,07,25,10,09,18.10
2010,07,25,10,10,18.10
2010,07,25,10,11,18.10
2010,07,25,10,12,18.10
2010,07,25,10,13,18.10
2010,07,25,10,14,18.10
2010,07,25,10,15,18.20
2010,07,25,10,16,18.30
2010,07,25,10,17,18.30
2010,07,25,10,18,18.30
2010,07,25,10,19,18.30
2010,07,25,10,20,18.30
2010,07,25,10,21,18.30
2010,07,25,10,22,18.30
2010,07,25,10,23,18.40
2010,07,25,10,24,18.40
2010,07,25,10,25,18.50
2010,07,25,10,26,18.50
2010,07,25,10,27,18.50
2010,07,25,10,28,18.50
2010,07,25,10,29,18.50
2010,07,25,10,30,18.60
2010,07,25,10,31,18.60
2010,07,25,10,32,18.70
2010,07,25,10,33,18.70
2010,07,25,10,34,18.80
2010,07,25,10,35,18.80
2010,07,25,10,36,18.90
2010,07,25,10,37,18.90
2010,07,25,10,38,18.90
2010,07,25,10,39,18.80
2010,07,25,10,40,18.80
2010,07,25,10,41,18.90
2010,07,25,10,42,18.90
2010,07,25,10,43,19.00
2010,07,25,10,44,19.10
2010,07,25,10,45,19.10
2010,07,25,10,46,19.20
2010,07,25,10,47,19.10
2010,07,25,10,48,19.10
2010,07,25,10,49,19.10
2010,07,25,10,50,19.10
2010,07,25,10,51,19.10
2010,07,25,10,52,19.10
2010,07,25,10,53,19.10
2010,07,25,10,54,19.10
2010,07,25,10,55,19.10
2010,07,25,10,56,19.10
2010,07,25,10,57,19.20
2010,07,25,10,58,19.30
2010,07,25,10,59,19.30
2010,07,25,11,00,19.40
2010,07,25,11,01,19.50
2010,07,25,11,02,19.60
2010,07,25,11,03,19.70
2010,07,25,11,04,19.80
2010,07,25,11,05,19.90
2010,07,25,11,06,19.90
2010,07,25,11,07,19.90
2010,07,25,11,08,19.80
2010,07,25,11,09,19.70
2010,07,25,11,10,19.70
2010,07,25,11,11,19.70
2010,07,25,11,12,19.60
2010,07,25,11,13,19.60
2010,07,25,11,14,19.50
2010,07,25,11,15,19.50
2010,07,25,11,16,19.50
2010,07,25,11,17,19.40
2010,07,25,11,18,19.40
2010,07,25,11,19,19.30
2010,07,25,11,20,19.20
2010,07,25,11,21,19.10
2010,07,25,11,22,19.10
2010,07,25,11,23,19.10
2010,07,25,11,24,19.00
2010,07,25,11,25,19.00
2010,07,25,11,26,19.00
2010,07,25,11,27,19.00
2010,07,25,11,28,19.00
2010,07,25,11,29,19.00
2010,07,25,11,30,18.90
2010,07,25,11,31,18.90
2010,07,25,11,32,18.90
2010,07,25,11,33,18.90
2010,07,25,11,34,19.00
2010,07,25,11,35,19.10
2010,07,25,11,36,19.10
2010,07,25,11,37,19.10
2010,07,25,11,38,19.10
2010,07,25,11,39,19.10
2010,07,25,11,40,19.10
2010,07,25,11,41,19.00
2010,07,25,11,42,19.00
2010,07,25,11,43,19.10
2010,07,25,11,44,19.10
2010,07,25,11,45,19.10
2010,07,25,11,46,19.20
2010,07,25,11,47,19.30
2010,07,25,11,48,19.30
2010,07,25,11,49,19.30
2010,07,25,11,50,19.30
2010,07,25,11,51,19.30
2010,07,25,11,52,19.30
2010,07,25,11,53,19.30
2010,07,25,11,54,19.30
2010,07,25,11,55,19.30
2010,07,25,11,56,19.30
2010,07,25,11,57,19.40
2010,07,25,11,58,19.40
2010,07,25,11,59,19.40
2010,07,25,12,00,19.50
2010,07,25,12,01,19.50
2010,07,25,12,02,19.50
2010,07,25,12,03,19.40
2010,07,25,12,04,19.30
2010,07,25,12,05,19.30
2010,07,25,12,06,19.20
2010,07,25,12,07,19.20
2010,07,25,12,08,19.10
2010,07,25,12,09,19.10
2010,07,25,12,10,19.10
2010,07,25,12,11,19.00
2010,07,25,12,12,19.10
2010,07,25,12,13,19.20
2010,07,25,12,14,19.30
2010,07,25,12,15,19.30
2010,07,25,12,16,19.40
2010,07,25,12,17,19.40
2010,07,25,12,18,19.40
2010,07,25,12,19,19.50
2010,07,25,12,20,19.60
2010,07,25,12,21,19.60
2010,07,25,12,22,19.70
2010,07,25,12,23,19.80
2010,07,25,12,24,19.80
2010,07,25,12,25,19.80
2010,07,25,12,26,19.80
2010,07,25,12,27,19.90
2010,07,25,12,28,19.90
2010,07,25,12,29,20.00
2010,07,25,12,30,20.00
2010,07,25,12,31,19.90
2010,07,25,12,32,19.90
2010,07,25,12,33,19.90
2010,07,25,12,34,19.90
2010,07,25,12,35,19.90
2010,07,25,12,36,20.00
2010,07,25,12,37,20.10
2010,07,25,12,38,20.20
2010,07,25,12,39,20.30
2010,07,25,12,40,20.40
2010,07,25,12,41,20.40
2010,07,25,12,42,20.40
2010,07,25,12,43,20.40
2010,07,25,12,44,20.50
2010,07,25,12,45,20.60
2010,07,25,12,46,20.60
2010,07,25,12,47,20.70
2010,07,25,12,48,20.70
2010,07,25,12,49,20.70
2010,07,25,12,50,20.80
2010,07,25,12,51,20.80
2010,07,25,12,52,20.80
2010,07,25,12,53,20.90
2010,07,25,12,54,20.90
2010,07,25,12,55,20.90
2010,07,25,12,56,20.90
2010,07,25,12,57,21.00
2010,07,25,12,58,21.00
2010,07,25,12,59,21.00
2010,07,25,13,00,21.10
2010,07,25,13,01,21.10
2010,07,25,13,02,21.10
2010,07,25,13,03,21.30
2010,07,25,13,04,21.40
2010,07,25,13,05,21.50
2010,07,25,13,06,21.60
2010,07,25,13,07,21.60
2010,07,25,13,08,21.60
2010,07,25,13,09,21.70
2010,07,25,13,10,21.70
2010,07,25,13,11,21.70
2010,07,25,13,12,21.80
2010,07,25,13,13,21.80
2010,07,25,13,14,21.80
2010,07,25,13,15,21.80
2010,07,25,13,16,21.90
2010,07,25,13,17,22.00
2010,07,25,13,18,22.10
2010,07,25,13,19,22.10
2010,07,25,13,20,22.10
2010,07,25,13,21,22.10
2010,07,25,13,22,22.00
2010,07,25,13,23,22.00
2010,07,25,13,24,22.00
2010,07,25,13,25,21.90
2010,07,25,13,26,22.00
2010,07,25,13,27,22.00
2010,07,25,13,28,22.10
2010,07,25,13,29,22.10
2010,07,25,13,30,22.10
2010,07,25,13,31,22.20
2010,07,25,13,32,22.30
2010,07,25,13,33,22.40
2010,07,25,13,34,22.40
2010,07,25,13,35,22.50
2010,07,25,13,36,22.50
2010,07,25,13,37,22.50
2010,07,25,13,38,22.50
2010,07,25,13,39,22.40
2010,07,25,13,40,22.30
2010,07,25,13,41,22.30
2010,07,25,13,42,22.30
2010,07,25,13,43,22.30
2010,07,25,13,44,22.30
2010,07,25,13,45,22.30
2010,07,25,13,46,22.30
2010,07,25,13,47,22.30
2010,07,25,13,48,22.30
2010,07,25,13,49,22.30
2010,07,25,13,50,22.40
2010,07,25,13,51,22.40
2010,07,25,13,52,22.50
2010,07,25,13,53,22.60
2010,07,25,13,54,22.70
2010,07,25,13,55,22.80
2010,07,25,13,56,23.00
2010,07,25,13,57,23.10
2010,07,25,13,58,23.20
2010,07,25,13,59,23.10
2010,07,25,14,00,23.10
2010,07,25,14,01,22.90
2010,07,25,14,02,22.90
2010,07,25,14,03,22.80
2010,07,25,14,04,22.80
2010,07,25,14,05,22.80
2010,07,25,14,06,22.70
2010,07,25,14,07,22.70
2010,07,25,14,08,22.60
2010,07,25,14,09,22.60
2010,07,25,14,10,22.70
2010,07,25,14,11,22.70
2010,07,25,14,12,22.70
2010,07,25,14,13,22.70
2010,07,25,14,14,22.70
2010,07,25,14,15,22.70
2010,07,25,14,16,22.70
2010,07,25,14,17,22.80
2010,07,25,14,18,22.80
2010,07,25,14,19,22.90
2010,07,25,14,20,22.90
2010,07,25,14,21,23.00
2010,07,25,14,22,23.00
2010,07,25,14,23,23.00
2010,07,25,14,24,23.00
2010,07,25,14,25,23.00
2010,07,25,14,26,23.10
2010,07,25,14,27,23.10
2010,07,25,14,28,23.00
2010,07,25,14,29,22.90
2010,07,25,14,30,22.90
2010,07,25,14,31,22.90
2010,07,25,14,32,23.00
2010,07,25,14,33,23.10
2010,07,25,14,34,23.10
2010,07,25,14,35,23.20
2010,07,25,14,36,23.30
2010,07,25,14,37,23.30
2010,07,25,14,38,23.40
2010,07,25,14,39,23.50
2010,07,25,14,40,23.60
2010,07,25,14,41,23.70
2010,07,25,14,42,23.80
2010,07,25,14,43,23.70
2010,07,25,14,44,23.70
2010,07,25,14,45,23.60
2010,07,25,14,46,23.60
2010,07,25,14,47,23.60
2010,07,25,14,48,23.50
2010,07,25,14,49,23.50
2010,07,25,14,50,23.50
2010,07,25,14,51,23.60
2010,07,25,14,52,23.60
2010,07,25,14,53,23.60
2010,07,25,14,54,23.60
2010,07,25,14,55,23.60
2010,07,25,14,56,23.70
2010,07,25,14,57,23.80
2010,07,25,14,58,23.90
2010,07,25,14,59,24.00
2010,07,25,15,00,24.00
2010,07,25,15,01,24.10
2010,07,25,15,02,24.20
2010,07,25,15,03,24.10
2010,07,25,15,04,24.00
2010,07,25,15,05,23.90
2010,07,25,15,06,23.80
2010,07,25,15,07,23.90
2010,07,25,15,08,23.90
2010,07,25,15,09,23.90
2010,07,25,15,10,24.00
2010,07,25,15,11,24.10
2010,07,25,15,12,24.10
2010,07,25,15,13,24.20
2010,07,25,15,14,24.20
2010,07,25,15,15,24.30
2010,07,25,15,16,24.30
2010,07,25,15,17,24.30
2010,07,25,15,18,24.40
2010,07,25,15,19,24.40
2010,07,25,15,20,24.40
2010,07,25,15,21,24.30
2010,07,25,15,22,24.30
2010,07,25,15,23,24.30
2010,07,25,15,24,24.30
2010,07,25,15,25,24.20
2010,07,25,15,26,24.30
2010,07,25,15,27,24.30
2010,07,25,15,28,24.30
2010,07,25,15,29,24.40
2010,07,25,15,30,24.40
2010,07,25,15,31,24.50
2010,07,25,15,32,24.40
2010,07,25,15,33,24.40
2010,07,25,15,34,24.40
2010,07,25,15,35,24.50
2010,07,25,15,36,24.60
2010,07,25,15,37,24.60
2010,07,25,15,38,24.70
2010,07,25,15,39,24.70
2010,07,25,15,40,24.60
2010,07,25,15,41,24.60
2010,07,25,15,42,24.60
2010,07,25,15,43,24.60
2010,07,25,15,44,24.60
2010,07,25,15,45,24.70
2010,07,25,15,46,24.70
2010,07,25,15,47,24.70
2010,07,25,15,48,24.70
2010,07,25,15,49,24.80
2010,07,25,15,50,24.80
2010,07,25,15,51,24.80
2010,07,25,15,52,24.90
2010,07,25,15,53,24.80
2010,07,25,15,54,24.80
2010,07,25,15,55,24.80
2010,07,25,15,56,24.80
2010,07,25,15,57,24.80
2010,07,25,15,58,24.80
2010,07,25,15,59,24.80
2010,07,25,16,00,24.80
2010,07,25,16,01,24.80
2010,07,25,16,02,24.80
2010,07,25,16,03,24.80
2010,07,25,16,04,24.80
2010,07,25,16,05,24.80
2010,07,25,16,06,24.90
2010,07,25,16,07,24.90
2010,07,25,16,08,24.90
2010,07,25,16,09,24.80
2010,07,25,16,10,24.80
2010,07,25,16,11,24.90
2010,07,25,16,12,25.00
2010,07,25,16,13,25.10
2010,07,25,16,14,25.30
2010,07,25,16,15,25.30
2010,07,25,16,16,25.40
2010,07,25,16,17,25.40
2010,07,25,16,18,25.40
2010,07,25,16,19,25.40
2010,07,25,16,20,25.30
2010,07,25,16,21,25.20
2010,07,25,16,22,25.20
2010,07,25,16,23,25.20
2010,07,25,16,24,25.30
2010,07,25,16,25,25.40
2010,07,25,16,26,25.50
2010,07,25,16,27,25.60
2010,07,25,16,28,25.70
2010,07,25,16,29,25.70
2010,07,25,16,30,25.80
2010,07,25,16,31,25.80
2010,07,25,16,32,25.80
2010,07,25,16,33,25.70
2010,07,25,16,34,25.70
2010,07,25,16,35,25.60
2010,07,25,16,36,25.60
2010,07,25,16,37,25.50
2010,07,25,16,38,25.50
2010,07,25,16,39,25.40
2010,07,25,16,40,25.30
2010,07,25,16,41,25.30
2010,07,25,16,42,25.30
2010,07,25,16,43,25.40
2010,07,25,16,44,25.40
2010,07,25,16,45,25.40
2010,07,25,16,46,25.50
2010,07,25,16,47,25.50
2010,07,25,16,48,25.50
2010,07,25,16,49,25.40
2010,07,25,16,50,25.30
2010,07,25,16,51,25.30
2010,07,25,16,52,25.20
2010,07,25,16,53,25.10
2010,07,25,16,54,25.10
2010,07,25,16,55,25.10
2010,07,25,16,56,25.00
2010,07,25,16,57,25.00
2010,07,25,16,58,25.10
2010,07,25,16,59,25.10
2010,07,25,17,00,25.20
2010,07,25,17,01,25.30
2010,07,25,17,02,25.30
2010,07,25,17,03,25.40
2010,07,25,17,04,25.50
2010,07,25,17,05,25.50
2010,07,25,17,06,25.60
2010,07,25,17,07,25.60
2010,07,25,17,08,25.60
2010,07,25,17,09,25.60
2010,07,25,17,10,25.50
2010,07,25,17,11,25.50
2010,07,25,17,12,25.50
2010,07,25,17,13,25.50
2010,07,25,17,14,25.50
2010,07,25,17,15,25.60
2010,07,25,17,16,25.60
2010,07,25,17,17,25.70
2010,07,25,17,18,25.70
2010,07,25,17,19,25.70